Location: State Camp
(41.2367°N, 77.7828°W)
Time: 03:01:56
(UTC-04:00)

ADEOS Rocket - Visible Passes

Search period start: 03 September 2014 00:00
Search period end: 13 September 2014 00:00
Orbit: 859 x 1307 km, 98.7° (Epoch: 02 September)

Date Brightness Start Highest point End Pass type
(mag) Time Alt. Az. Time Alt. Az. Time Alt. Az.
03 Sep 4.5 20:29:55 11° E 20:33:02 16° ENE 20:36:34 10° NNE visible
03 Sep 2.9 22:16:53 62° SSW 22:17:45 75° WSW 22:23:43 10° NNW visible
04 Sep 3.2 21:27:24 36° ESE 21:29:00 45° ENE 21:34:40 10° N visible
04 Sep 4.5 23:14:22 24° W 23:14:49 25° W 23:19:34 10° NW visible
05 Sep 4.4 20:37:56 14° E 20:40:40 20° ENE 20:44:48 10° NNE visible
05 Sep 3.0 22:24:54 59° SW 22:25:33 63° W 22:31:33 10° NNW visible
06 Sep 3.1 21:35:26 44° ESE 21:36:43 53° ENE 21:42:38 10° N visible
06 Sep 4.7 23:22:23 21° W 23:22:43 21° W 23:27:07 10° NW visible
07 Sep 4.2 20:45:57 18° E 20:48:20 23° ENE 20:52:58 10° N visible
07 Sep 3.3 22:32:55 53° WSW 22:33:22 54° W 22:39:21 10° NNW visible
08 Sep 2.9 21:43:27 54° ESE 21:44:27 63° ENE 21:50:34 10° N visible
08 Sep 5.0 23:30:25 18° W 23:30:38 18° W 23:34:36 10° NW visible
09 Sep 4.0 20:53:59 22° E 20:56:00 27° ENE 21:01:05 10° N visible
09 Sep 3.6 22:40:57 46° WSW 22:41:12 46° W 22:47:08 10° NNW visible
10 Sep 4.8 20:05:57 10° ENE 20:07:59 12° NE 20:10:05 10° NNE visible
10 Sep 2.8 21:51:29 65° ESE 21:52:12 74° ENE 21:58:30 10° N visible
10 Sep 5.2 23:38:26 15° W 23:38:34 15° W 23:41:59 10° NW visible
11 Sep 3.8 21:02:01 27° E 21:03:42 32° ENE 21:09:10 10° N visible
11 Sep 3.9 22:48:58 39° W 22:49:03 39° W 22:54:54 10° NNW visible
12 Sep 4.7 20:12:37 10° E 20:15:37 14° NE 20:18:45 10° NNE visible
12 Sep 2.8 21:59:31 77° SE 21:59:59 85° ENE 22:06:25 10° NNW visible
12 Sep 5.4 23:46:28 13° W 23:46:31 13° W 23:49:10 10° WNW visible
